METEOR 2-8 DEB

Satellite information

Favourite Embed

Satellite Type and Status

DEBRISIN ORBIT

Key statistics

Satellite METEOR 2-8 DEB at a glance.

Uptime

15808

Days in orbit

Revolutions

≈ 14.3

Per day

Orbit

LEO

Low Earth Orbit

Inclination

82.5

Latest

Satellite identification and parameters

Extended collection of information and parameters for METEOR 2-8 DEB.

Object identification

Identified? True

Debris? True

Object name: METEOR 2-8 DEB

International designator: 1982-025V

Object number (NORAD): 36335

Object ID (CCSDS): 36335

Country: COMMONWEALTH OF INDEPENDENT STATES (CIS)

Current information (Y/N): Y

RCS size: SMALL

Orbital parameters

Period: 100.674 minutes

Inclination: 82.4978 deg

SMA: 7168.674 km

Apoapsis: 815.983 km

Periapsis: 765.096 km

RAAN: 101.4482 deg

Eccentricy: 0.0035493

Argument of periapsis: 310.0117 deg

Mean anomaly: 49.7955 deg

Mean motion: 14.30357103 rev/day

Mean motion (dot): 0.00003244 rev/day2

B* drag term: 0.0012346 1/REarth

Two-line elements (TLE)

Creation date: July 3, 2025, 5:26 p.m.

Reference frame: TEME

Reference center: EARTH

Epoch: July 3, 2025, 12:43 a.m. UTC

TLE line 0: 0 METEOR 2-8 DEB

TLE line 1: 1 36335U 82025V 25184.02993373 .00003244 00000-0 12346-2 0 9994

TLE line 2: 2 36335 82.4978 101.4482 0035493 310.0117 49.7955 14.30357103 60267

Live tracking on map

Real-time ground track for satellite METEOR 2-8 DEB.

In-orbit conjunctions

A list of the most updated potential collisions computed for object METEOR 2-8 DEB.

Target Orbit TCA Probability of collision Miss distance Type
CZ-6A DEB SSO 2025-02-02 12:41:04 0.0001200137 285.0 (m) DEBRIS
SL-8 R/B LEO 2025-02-01 15:47:15 0.0001972079 181.0 (m) ROCKET BODY
SL-24 R/B SSO 2024-10-02 03:57:37 0.0001451013 248.0 (m) ROCKET BODY
FEDSAT SSO 2024-08-24 03:13:33 0.0002490052 539.0 (m) PAYLOAD
AAU CUBESAT SSO 2024-08-12 10:03:32 0.0002020907 479.0 (m) PAYLOAD

Associated space launch

Second generation soviet meteorological satellite

METEOR 2-8 DEB was lifted into orbit during the mission ‘Tsiklon-3 | Meteor-2 8’, on board a Tsiklon-3 space rocket.

The launch took place on March 25, 1982, 9:50 a.m. from 32/1.

For more information about the launch, click the button.

Launch to space Tsiklon-3 | Meteor-2 8
Tsiklon-3 | Meteor-2 8

Agency: N/A

Status: Launch Successful

Launch date: March 25, 1982, 9:50 a.m. UTC

Rocket: Tsiklon-3

Launch pad: 32/1

Location: Plesetsk Cosmodrome, Russian Federation

...

Latest news about this satellite

There are no fresh news available about this satellite. Check back as we update our databases every day.


Newsletter sign-up

Weekly statistics, charts and insights to help you stay on top of the space industry.